Fullerton, CA

8:40 PM PDT on April 23, 2018 (GMT -0700)
Fullerton Municipal

Weather History for KFUL - November, 2011

Change the Weather History Date:

Sunday, November 27, 2011

  Actual Average Record
Temperature  
Mean Temperature 70 °F 58 °F  
Max Temperature 89 °F 69 °F 91 °F (2014)
Min Temperature 50 °F 47 °F 38 °F (2010)
Degree Days  
Heating Degree Days 0 7  
Month to date heating degree days 118 118  
Since 1 July heating degree days 127 142  
Cooling Degree Days 5 0  
Month to date cooling degree days 12 19  
Year to date cooling degree days 1177 1250  
Growing Degree Days 20 (Base 50)    
Moisture  
Dew Point 29 °F    
Average Humidity 30    
Maximum Humidity 50    
Minimum Humidity 9    
Precipitation  
Precipitation 0.00 in 0.03 in 0.12 in (2004)
Month to date precipitation 1.20 0.99  
Year to date precipitation 7.53 11.72  
Since 1 July precipitation 1.96  
Snow  
Snow 0.00 in - - ()
Month to date snowfall 0.0  
Year to date snowfall 0.0  
Snow Depth 0.00 in    
Sea Level Pressure  
Sea Level Pressure 30.20 in    
Wind  
Wind Speed 3 mph (NE)    
Max Wind Speed 15 mph    
Max Gust Speed 21 mph    
Visibility 10 miles    
Events      
T = Trace of Precipitation, MM = Missing Value Source: NWS Daily Summary

Daily Weather History Graph

Daily Weather History Graph

Search for Another Location

Airport or City:

Astronomy

Nov. 27, 2011 Rise Set
Actual Time 6:35 AM PST 4:43 PM PST
Civil Twilight 6:08 AM PST 5:10 PM PST
Nautical Twilight 5:37 AM PST 5:41 PM PST
Astronomical Twilight 5:07 AM PST 6:11 PM PST
Moon 9:02 AM PST (11/27) 7:28 PM PST (11/27)
Length of Visible Light 11h 02m
Length of Day
10h 08m
Waxing Crescent, 9% of the Moon is Illuminated
Nov 27
Waxing Crescent
Dec 2
First Quarter
Dec 10
Full
Dec 17
Last Quarter
Dec 24
New

Hourly Weather History & Observations

Time (PST) Temp. Dew Point Humidity Pressure Visibility Wind Dir Wind Speed Gust Speed Precip Events Conditions
12:53 AM 54.0 °F 34.0 °F 47% 30.22 in 10.0 mi Calm Calm - N/A   Clear
1:53 AM 55.0 °F 33.1 °F 43% 30.22 in 10.0 mi Calm Calm - N/A   Clear
2:53 AM 52.0 °F 34.0 °F 50% 30.22 in 10.0 mi Calm Calm - N/A   Clear
3:53 AM 57.0 °F 28.9 °F 34% 30.22 in 10.0 mi Calm Calm - N/A   Clear
4:53 AM 53.1 °F 32.0 °F 45% 30.22 in 10.0 mi West 3.5 mph - N/A   Clear
5:53 AM 53.1 °F 33.1 °F 47% 30.23 in 10.0 mi Calm Calm - N/A   Clear
7:53 AM 63.0 °F 37.0 °F 38% 30.25 in 10.0 mi Calm Calm - N/A   Clear
8:53 AM 77.0 °F 21.9 °F 13% 30.26 in 10.0 mi East 10.4 mph - N/A   Clear
9:53 AM 82.0 °F 21.9 °F 11% 30.27 in 10.0 mi East 8.1 mph - N/A   Clear
10:53 AM 84.9 °F 21.9 °F 10% 30.25 in 10.0 mi ENE 8.1 mph - N/A   Clear
11:53 AM 86.0 °F 23.0 °F 10% 30.22 in 10.0 mi East 5.8 mph - N/A   Clear
12:53 PM 88.0 °F 21.9 °F 9% 30.19 in 10.0 mi ENE 5.8 mph - N/A   Clear
1:53 PM 88.0 °F 21.9 °F 9% 30.17 in 10.0 mi Variable 4.6 mph - N/A   Clear
2:53 PM 89.1 °F 23.0 °F 9% 30.17 in 10.0 mi East 4.6 mph - N/A   Clear
3:53 PM 87.1 °F 21.0 °F 9% 30.17 in 10.0 mi ENE 3.5 mph - N/A   Clear
4:53 PM 78.1 °F 27.0 °F 15% 30.17 in 10.0 mi Calm Calm - N/A   Clear
5:53 PM 71.1 °F 35.1 °F 27% 30.18 in 10.0 mi North 3.5 mph - N/A   Clear
6:53 PM 68.0 °F 35.1 °F 30% 30.18 in 10.0 mi Calm Calm - N/A   Clear
7:53 PM 64.9 °F 35.1 °F 33% 30.18 in 10.0 mi Calm Calm - N/A   Clear
8:53 PM 64.0 °F 33.1 °F 31% 30.17 in 10.0 mi NW 3.5 mph - N/A   Clear
9:53 PM 62.1 °F 30.9 °F 31% 30.17 in 10.0 mi WNW 3.5 mph - N/A   Clear
10:53 PM 64.0 °F 28.9 °F 27% 30.17 in 10.0 mi NNW 3.5 mph - N/A   Clear
11:53 PM 60.1 °F 28.9 °F 31% 30.15 in 10.0 mi Calm Calm - N/A   Clear